Regional Weather Roundup
Issued by NWS

Home | Current Version | Previous Version | Graphics & Text | Print | Product List | Glossary On
Versions: 1 2 3 4 5 6 7 8 9 10 11 12 13 14 15 16 17 18 19 20 21 22 23 24 25 26 27 28 29 30 31 32 33 34 35 36 37 38 39 40 41 42 43 44 45 46 47 48 49 50
000
ASUS43 KTOP 281159
RWRKS

WEATHER ROUNDUP FOR KANSAS
NATIONAL WEATHER SERVICE GOODLAND KS
700 AM CDT SUN AUG 28 2016

NOTE:  "FAIR" INDICATES FEW OR NO CLOUDS BELOW 12,000 FEET WITH NO
SIGNIFICANT WEATHER AND/OR OBSTRUCTIONS TO VISIBILITY.

KSZ001>006-013>018-027>032-041>047-281300-
NORTHWEST KANSAS

CITY           SKY/WX    TMP DP  RH WIND       PRES   REMARKS
GOODLAND       PTCLDY    63  52  67 SW12      30.09R
6HR MIN TEMP:  58; 6HR MAX TEMP:  66;

HAYS           CLOUDY    64  57  77 SE7       30.08S
HILL CITY      PTCLDY    65  62  90 E7        30.07S
6HR MIN TEMP:  63; 6HR MAX TEMP:  72;

RUSSELL        MOCLDY    67  66  97 S3        30.07R
6HR MIN TEMP:  67; 6HR MAX TEMP:  73;

$$

KSZ061>065-074>080-084>089-281300-
SOUTHWEST KANSAS

CITY           SKY/WX    TMP DP  RH WIND       PRES   REMARKS
DODGE CITY     CLOUDY    66  61  84 S9        30.08S
6HR MIN TEMP:  63; 6HR MAX TEMP:  66;

ELKHART          N/A     60  56  87 S7          N/A
GARDEN CITY    CLOUDY    64  58  80 SE8       30.08R
6HR MIN TEMP:  64; 6HR MAX TEMP:  68;

GREAT BEND     PTCLDY    66  61  82 CALM      30.09R
LIBERAL        CLOUDY    64  57  77 W13       30.06S
$$

KSZ066>073-081>083-090>101-281300-
SOUTHEAST KANSAS

CITY           SKY/WX    TMP DP  RH WIND       PRES   REMARKS
CHANUTE        CLOUDY    72  70  93 SE6       30.10R
6HR MIN TEMP:  71; 6HR MAX TEMP:  75;

COFFEYVILLE    CLEAR     69  68  96 SE5       30.10R
6HR MIN TEMP:  69; 6HR MAX TEMP:  75;

HUTCHINSON     CLOUDY    72  69  90 SE6       30.07R
6HR MIN TEMP:  70; 6HR MAX TEMP:  76;

MEDICINE LODGE   N/A     69  65  86 S6        30.08R
NEWTON         CLOUDY    70  69  97 SE6       30.10R
PARSONS        CLEAR     69  68  96 CALM      30.11R
6HR MIN TEMP:  68; 6HR MAX TEMP:  76;

WICHITA INTL   CLOUDY    73  70  90 S8        30.08R
6HR MIN TEMP:  72; 6HR MAX TEMP:  77;

WICHITA JABRA  MOCLDY    72  71  97 S7        30.09R
6HR MIN TEMP:  72; 6HR MAX TEMP:  73;

WINFIELD       CLOUDY    72  70  93 SE5       30.10R
6HR MIN TEMP:  72; 6HR MAX TEMP:  75;

$$

KSZ007>012-019>026-033>040-048>060-102>105-281300-
NORTHEAST KANSAS

CITY           SKY/WX    TMP DP  RH WIND       PRES   REMARKS
CONCORDIA      PTCLDY    68  66  93 E5        30.07R
6HR MIN TEMP:  67; 6HR MAX TEMP:  71;

EMPORIA        PTCLDY    69  68  96 SE6       30.10R
6HR MIN TEMP:  69; 6HR MAX TEMP:  71;

LAWRENCE       CLEAR     68  68 100 E3        30.09R FOG
6HR MIN TEMP:  68; 6HR MAX TEMP:  71;

MANHATTAN      CLEAR     69  68  96 CALM      30.08R
6HR MIN TEMP:  68; 6HR MAX TEMP:  75;

OLATHE IND     CLEAR     71  70  96 S5        30.11R
6HR MIN TEMP:  71; 6HR MAX TEMP:  76;

OLATHE EXE     CLEAR     69  68  96 S5        30.11R
6HR MIN TEMP:  69; 6HR MAX TEMP:  74;

SALINA         PTCLDY    70  68  93 S6        30.07R
6HR MIN TEMP:  70; 6HR MAX TEMP:  76;

TOPEKA BILLARD CLEAR     69  67  93 CALM      30.09R
6HR MIN TEMP:  68; 6HR MAX TEMP:  73;

TOPEKA FORBES  CLEAR     71  68  90 SE3       30.09R
6HR MIN TEMP:  71; 6HR MAX TEMP:  73;

$$



USA.gov is the U.S. government's official web portal to all federal, state and local government web resources and services.